Terug naar catalogus

COSMOS 1275 DEB

ActiefPO
NORAD 12709·DEBRIS·🇷🇺 Russia

Gelanceerd Jun 4, 1981 vanaf Plesetsk Cosmodrome

Loading…

Volgende Passages (komende 24 uur)

TLE

VersSource: Space-Track

Epoch: Sep 14, 2026, 08:05 UTC

1 12709U 81053BD  26257.33689809  .00000517  00000-0  60184-3 0  9999
2 12709  82.9715 216.9157 0123982 118.1320  33.4265 13.63630988235050

Volg COSMOS 1275 DEB in realtime met AllMySat

Download on the App Store